Regional Weather Roundup
Issued by NWS

Home | Current Version | Previous Version | Graphics & Text | Print | Product List | Glossary On
Versions: 1 2 3 4 5 6 7 8 9 10 11 12 13 14 15 16 17 18 19 20 21 22 23 24 25 26 27 28 29 30 31 32 33 34 35 36 37 38 39 40 41 42 43 44 45 46 47 48 49 50
000
ASUS45 KPSR 312100
RWRAZ

PRELIMINARY ARIZONA REGIONAL HOURLY WEATHER ROUNDUP
NATIONAL WEATHER SERVICE PHOENIX AZ
200 PM MST SUN AUG 31 2014

NOTE: FAIR INDICATES FEW OR NO CLOUDS BELOW 12,000 FEET WITH NO
SIGNIFICANT WEATHER AND/OR OBSTRUCTIONS TO VISIBILITY.

AZZ001>003-036-312200-
NORTHWEST ARIZONA

CITY           SKY/WX    TMP DP  RH WIND       PRES   REMARKS
KINGMAN        SUNNY     96  38  13 SW21G28   29.93F
$$

AZZ004>008-015-016-018-312200-
NORTH CENTRAL ARIZONA

CITY           SKY/WX    TMP DP  RH WIND       PRES   REMARKS
GRAND CANYON   SUNNY     82  34  17 SW23G33   30.15F
WILLIAMS       SUNNY     77  39  25 SW12G24   30.26F
PRESCOTT       SUNNY     86  38  18 SW17      30.09F
FLAGSTAFF      SUNNY     77  40  26 SW18G32   30.21F
PAYSON         SUNNY     86  45  23 S13G21    30.12F
PAGE           SUNNY     95  35  12 W13G18    29.90F
$$

AZZ009>014-017-312200-
NORTHEAST ARIZONA

CITY           SKY/WX    TMP DP  RH WIND       PRES   REMARKS
WINSLOW        NOT AVBL
SAINT JOHNS    SUNNY     87  32  14 W17G28    30.10F
WINDOW ROCK    SUNNY     86  33  15 W20G31    30.15F
$$

AZZ023-312200-
GREATER PHOENIX AREA

CITY           SKY/WX    TMP DP  RH WIND       PRES   REMARKS
PHOENIX        MOSUNNY  106  43  12 NW13      29.76F HX 101
GLENDALE       MOSUNNY  104  45  13 SW6       29.79F HX 100
LUKE AFB       NOT AVBL
DEER VALLEY    SUNNY    102  41  12 VRB3      29.80F
SCOTTSDALE     SUNNY    102  44  14 S5        29.81F
MESA-FALCON    MOSUNNY  106  39  10 S12       29.79F HX 100
MESA-GATEWAY   SUNNY    102  39  11 SW13      29.82F
CHANDLER       MOSUNNY  106  39  10 S9        29.78F HX 100
$$

AZZ027-028-312200-
SOUTHWEST MARICOPA COUNTY AND PINAL COUNTY

CITY           SKY/WX    TMP DP  RH WIND       PRES   REMARKS
CASA GRANDE    SUNNY    104  41  11 S3G18     29.81F
$$

AZZ503-504-507>509-312200-
SOUTHEAST ARIZONA

CITY           SKY/WX    TMP DP  RH WIND       PRES   REMARKS
TUCSON         SUNNY    102  42  13 SW15G21   29.92F
DAVIS-MONTHAN  SUNNY    100  45  15 SW12G21   29.90F
RYAN FIELD       N/A    100  43  14 SW10G16   29.90F
NOGALES        SUNNY     91  50  24 MISG      30.03F
SIERRA VISTA   MOSUNNY   92  50  23 S9G20     30.08F
SAFFORD        SUNNY     98  41  14 SW8       29.92F
$$

AZZ020-021-025-026-031-312200-
SOUTHWEST ARIZONA

CITY           SKY/WX    TMP DP  RH WIND       PRES   REMARKS
YUMA           NOT AVBL
$$

CAZ031-033-041-043-047-048-061-312200-
SOUTHERN CALIFORNIA

CITY           SKY/WX    TMP DP  RH WIND       PRES   REMARKS
DOWNTOWN L.A.  SUNNY     84  66  54 VRB3      29.80F
L.A. AIRPORT   MOSUNNY   78  65  63 W12       29.82F
SAN DIEGO      MOSUNNY   75  61  61 SW6       29.84F
BURBANK        SUNNY     87  62  43 S9        29.81F
ONTARIO        MOSUNNY   94  55  26 W12       29.81F
RIVERSIDE      MOSUNNY   94  56  27 W9        29.80F
PALM SPRINGS   SUNNY    107  37   9 CALM      29.70F HX 101
IMPERIAL       SUNNY    108  46  12 VRB3      29.65F HX 104
BLYTHE         SUNNY    108  46  12 S17G24    29.68F HX 104
$$

NVZ020-UTZ003-312200-
SOUTHERN NEVADA-UTAH

CITY           SKY/WX    TMP DP  RH WIND       PRES   REMARKS
LAS VEGAS      NOT AVBL
SALT LAKE CITY MOSUNNY   75  39  27 N14       30.03S
$$

NMZ009-TXZ055-312200-
NEW MEXICO-WEST TEXAS

CITY           SKY/WX    TMP DP  RH WIND       PRES   REMARKS
ALBUQUERQUE    MOSUNNY   91  34  13 SW14G24   30.03F
EL PASO        MOSUNNY   97  46  17 NW8G23    29.96F
$$


........................KEY........................
SKY/WX - SKY CONDITION/WEATHER
TMP    - TEMPERATURE IN FAHRENHEIT
DP     - DEW POINT IN FAHRENHEIT
RH     - RELATIVE HUMIDITY IN PERCENT
WIND   - DIRECTION AND SPEED IN MILES PER HOUR (MPH)
VRB    - VARIABLE WIND DIRECTION
PRES   - MEAN SEA LEVEL PRESSURE IN INCHES OF MERCURY
         F - FALLING PRESSURE   R - RISING PRESSURE
         S - STEADY PRESSURE
VSB    - VISIBILITY IN MILES
HX     - HEAT INDEX IN FAHRENHEIT
WCI    - WIND CHILL INDEX IN FAHRENHEIT
TC     - TEMPERATURE IN CELSIUS WHICH IS ALSO KNOWN AS
         TEMPERATURE IN CENTIGRADE
AFB    - AIR FORCE BASE
         LUKE AFB IS LUKE AIR FORCE BASE
         DAVIS-MONTHAN IS DAVIS-MONTHAN AIR FORCE BASE
NAS    - NAVAL AIR STATION
         EL CENTRO NAS IS EL CENTRO NAVAL AIR STATION
N/A    - NOT AVAILABLE


USA.gov is the U.S. government's official web portal to all federal, state and local government web resources and services.